Home   Weather   Visalia   Past weeks
Flag for USA

Past Weather in Visalia, California, USA — Yesterday and Last 2 Weeks

Now
66 °F

Sunny.


Feels Like: 66 °F
Forecast: 72 / 45 °F
Wind: 5 mph from Southeast

Location: Visalia Municipal

Current Time: Oct 18, 2019 at 2:37:20 pm

Latest Report: Oct 18, 2019 at 12:56 pm


Visibility: 10 mi

Pressure: 30.08 "Hg

Humidity: 43%

Dew Point: 43 °F

Location of VisaliaLocation

Past Weather in Visalia — Graph

°F

Visalia Temperature Yesterday

Maximum temperature yesterday: 75 °F (at 2:56 pm)
Minimum temperature yesterday: 53 °F (at 5:56 am)
Average temperature yesterday: 63 °F

High & Low Weather Summary for the Past Weeks

 TemperatureHumidityPressure
High90 °F (Oct 8, 3:56 pm)90% (Oct 18, 7:56 am)30.18 "Hg (Oct 18, 7:56 am)
Low43 °F (Oct 10, 6:56 am)14% (Oct 12, 3:56 pm)29.79 "Hg (Oct 13, 4:56 pm)
Average63 °F50%29.97 "Hg
* Reported Oct 3 12:56 pm — Oct 18 12:56 pm, Visalia. Weather by CustomWeather, © 2019

Note: Actual official high and low records may vary slightly from our data, if they occured in-between our weather recording intervals... More about our weather records

Advertising

Visalia Weather History for the Previous 24 Hours

Scroll right to see more
 ConditionsComfort  
Time TempWeatherWind HumidityBarometerVisibility
12:56 pm
Fri, Oct 18
66 °FSunny.5 mph43%30.08 "Hg10 mi
11:56 am64 °FSunny.9 mph49%30.11 "Hg8 mi
10:56 am60 °FSunny.3 mph56%30.13 "Hg10 mi
9:56 am57 °FSunny.No wind67%30.12 "Hg10 mi
8:56 am52 °FSunny.5 mph77%30.10 "Hg10 mi
7:56 am45 °FSunny.No wind90%30.07 "Hg10 mi
6:56 am44 °FClear.No wind89%30.06 "Hg10 mi
5:56 am48 °FClear.No wind83%30.04 "Hg10 mi
4:56 am44 °FClear.No wind85%30.03 "Hg10 mi
3:56 am47 °FClear.No wind83%30.01 "Hg10 mi
2:56 am52 °FClear.5 mph72%30.01 "Hg10 mi
1:56 am54 °FClear.3 mph69%30.00 "Hg10 mi
12:56 am55 °FClear.5 mph67%29.97 "Hg10 mi
11:56 pm
Thu, Oct 17
54 °FClear.6 mph67%29.96 "Hg10 mi
10:56 pm57 °FClear.10 mph58%29.94 "Hg10 mi
9:56 pm58 °FClear.12 mph58%29.93 "Hg10 mi
8:56 pm60 °FClear.9 mph58%29.92 "Hg10 mi
7:56 pm62 °FClear.7 mph56%29.91 "Hg10 mi
6:56 pm66 °FClear.12 mph47%29.90 "Hg10 mi
5:56 pm70 °FSunny.15 mph39%29.88 "Hg10 mi
4:56 pm73 °FSunny.17 mph33%29.88 "Hg10 mi
3:56 pm74 °FScattered clouds.18 mph31%29.88 "Hg8 mi
2:56 pm75 °FPassing clouds.20 mph33%29.88 "Hg8 mi
Weather by CustomWeather, © 2019

See weather overview